カタログに戻る

INMARSAT 2-F4

運用中通信GEO
NORAD 21940·PAYLOAD·🇮🇲 IM

打ち上げ Apr 15, 1992 から Guiana Space Centre

Loading…

TLE

最新Source: Space-Track

元期: Sep 13, 2026, 20:59 UTC

1 21940U 92021B   26256.87448252 -.00000040  00000-0  00000+0 0  9995
2 21940  12.2422  15.1714 0008634 179.1501 174.3657  0.97942074 51512

AllMySatでINMARSAT 2-F4をリアルタイム追跡

Download on the App Store